| time (UTC) | temp C | wind direction | speed KPH | gust KPH | rain 1hr cm | rain 24hr cm | rain mn cm | humidity % | barometer mb |
| 20260506150207 | 23 | 150 | 0.0 | 0.0 | 0.00 | 0.00 | 0.00 | 96 | 1009.3 |
| 20260506145704 | 23 | 150 | 0.0 | 0.0 | 0.00 | 0.00 | 0.00 | 96 | 1009.2 |
| 20260506145201 | 23 | 150 | 0.0 | 0.0 | 0.00 | 0.00 | 0.00 | 96 | 1009.1 |
| 20260506144659 | 23 | 150 | 0.0 | 1.6 | 0.00 | 0.00 | 0.00 | 96 | 1009.1 |
| 20260506144155 | 23 | 151 | 0.0 | 0.0 | 0.00 | 0.00 | 0.00 | 95 | 1009.0 |
| 20260506143653 | 23 | 151 | 0.0 | 0.0 | 0.00 | 0.00 | 0.00 | 95 | 1009.2 |
| 20260506143150 | 23 | 151 | 0.0 | 0.0 | 0.00 | 0.00 | 0.00 | 95 | 1009.0 |
| 20260506142649 | 23 | 151 | 0.0 | 0.0 | 0.00 | 0.00 | 0.00 | 95 | 1009.2 |
| 20260506142146 | 23 | 151 | 0.0 | 0.0 | 0.00 | 0.00 | 0.00 | 96 | 1009.3 |
| 20260506141644 | 23 | 151 | 0.0 | 0.0 | 0.00 | 0.00 | 0.00 | 96 | 1009.1 |
| 20260506141142 | 23 | 151 | 0.0 | 0.0 | 0.00 | 0.00 | 0.00 | 96 | 1008.7 |
| 20260506140639 | 23 | 152 | 0.0 | 0.0 | 0.00 | 0.00 | 0.00 | 96 | 1008.7 |
| 20260506140136 | 23 | 151 | 1.6 | 1.6 | 0.00 | 0.00 | 0.00 | 96 | 1008.5 |
| 20260506135633 | 23 | 152 | 1.6 | 3.2 | 0.00 | 0.00 | 0.00 | 96 | 1008.4 |
| 20260506135129 | 22 | 151 | 1.6 | 3.2 | 0.00 | 0.00 | 0.00 | 96 | 1008.1 |
| 20260506134626 | 22 | 152 | 1.6 | 1.6 | 0.00 | 0.00 | 0.00 | 96 | 1008.1 |
| 20260506134121 | 22 | 152 | 4.8 | 4.8 | 0.00 | 0.00 | 0.00 | 96 | 1008.1 |
| 20260506133619 | 22 | 151 | 1.6 | 1.6 | 0.00 | 0.00 | 0.00 | 96 | 1007.8 |
| 20260506133116 | 22 | 150 | 1.6 | 3.2 | 0.00 | 0.00 | 0.00 | 96 | 1007.8 |
| 20260506132613 | 22 | 150 | 3.2 | 3.2 | 0.00 | 0.00 | 0.00 | 97 | 1007.7 |
| 20260506132110 | 22 | 145 | 3.2 | 4.8 | 0.00 | 0.00 | 0.00 | 97 | 1008.0 |
| 20260506131608 | 22 | 152 | 1.6 | 1.6 | 0.00 | 0.00 | 0.00 | 97 | 1007.7 |
| 20260506131104 | 22 | 157 | 1.6 | 1.6 | 0.00 | 0.00 | 0.00 | 97 | 1008.0 |
| 20260506130601 | 22 | 151 | 4.8 | 8.0 | 0.00 | 0.00 | 0.00 | 97 | 1007.6 |
| 20260506130058 | 22 | 154 | 4.8 | 8.0 | 0.00 | 0.00 | 0.00 | 97 | 1007.5 |
| 20260506125557 | 22 | 152 | 4.8 | 4.8 | 0.00 | 0.00 | 0.00 | 97 | 1007.6 |
| 20260506125054 | 22 | 156 | 1.6 | 3.2 | 0.00 | 0.00 | 0.00 | 97 | 1007.5 |
| 20260506124552 | 22 | 150 | 3.2 | 3.2 | 0.00 | 0.00 | 0.00 | 97 | 1007.6 |
| 20260506124049 | 22 | 155 | 3.2 | 3.2 | 0.00 | 0.00 | 0.00 | 97 | 1007.6 |
| 20260506123547 | 22 | 151 | 1.6 | 1.6 | 0.00 | 0.00 | 0.00 | 97 | 1007.6 |
| 20260506123045 | 22 | 151 | 4.8 | 4.8 | 0.00 | 0.00 | 0.00 | 97 | 1007.6 |
| 20260506122541 | 22 | 150 | 1.6 | 1.6 | 0.00 | 0.00 | 0.00 | 97 | 1007.5 |
| 20260506122040 | 22 | 149 | 0.0 | 1.6 | 0.00 | 0.00 | 0.00 | 97 | 1007.8 |
| 20260506121537 | 22 | 149 | 0.0 | 1.6 | 0.00 | 0.00 | 0.00 | 97 | 1007.6 |
| 20260506121033 | 22 | 150 | 0.0 | 0.0 | 0.00 | 0.00 | 0.00 | 97 | 1007.8 |
| 20260506120531 | 22 | 149 | 0.0 | 1.6 | 0.00 | 0.00 | 0.00 | 97 | 1007.4 |
| 20260506120028 | 22 | 150 | 0.0 | 1.6 | 0.00 | 0.00 | 0.00 | 97 | 1007.5 |
| 20260506115526 | 22 | 150 | 0.0 | 1.6 | 0.00 | 0.00 | 0.00 | 97 | 1007.8 |
| 20260506115024 | 22 | 150 | 0.0 | 0.0 | 0.00 | 0.00 | 0.00 | 97 | 1007.5 |
| 20260506114521 | 22 | 152 | 0.0 | 1.6 | 0.00 | 0.00 | 0.00 | 96 | 1007.5 |
| 20260506114020 | 22 | 187 | 3.2 | 4.8 | 0.00 | 0.00 | 0.00 | 96 | 1007.4 |
| 20260506113517 | 22 | 150 | 0.0 | 1.6 | 0.00 | 0.00 | 0.00 | 96 | 1007.4 |
| 20260506113014 | 22 | 150 | 1.6 | 1.6 | 0.00 | 0.00 | 0.00 | 96 | 1007.4 |
| 20260506112511 | 22 | 149 | 1.6 | 1.6 | 0.00 | 0.00 | 0.00 | 96 | 1007.4 |
| 20260506112008 | 22 | 152 | 3.2 | 3.2 | 0.00 | 0.00 | 0.00 | 96 | 1007.5 |
| 20260506111506 | 22 | 150 | 0.0 | 0.0 | 0.00 | 0.00 | 0.00 | 96 | 1007.3 |
| 20260506111003 | 22 | 150 | 1.6 | 1.6 | 0.00 | 0.00 | 0.00 | 96 | 1007.4 |
| 20260506110501 | 22 | 151 | 1.6 | 1.6 | 0.00 | 0.00 | 0.00 | 96 | 1007.4 |
| 20260506105957 | 22 | 150 | 0.0 | 0.0 | 0.00 | 0.00 | 0.00 | 96 | 1007.4 |
| 20260506105453 | 22 | 150 | 1.6 | 1.6 | 0.00 | 0.00 | 0.00 | 96 | 1007.2 |
| 20260506104951 | 22 | 150 | 0.0 | 1.6 | 0.00 | 0.00 | 0.00 | 96 | 1007.2 |
| 20260506104449 | 22 | 150 | 3.2 | 3.2 | 0.00 | 0.00 | 0.00 | 96 | 1007.2 |
| 20260506103947 | 22 | 150 | 1.6 | 1.6 | 0.00 | 0.00 | 0.00 | 96 | 1006.8 |
| 20260506103444 | 22 | 164 | 1.6 | 3.2 | 0.00 | 0.00 | 0.00 | 96 | 1007.2 |
| 20260506102940 | 22 | 152 | 1.6 | 1.6 | 0.00 | 0.00 | 0.00 | 96 | 1007.3 |
| 20260506102439 | 22 | 204 | 6.4 | 9.7 | 0.00 | 0.00 | 0.00 | 96 | 1007.1 |
| 20260506101936 | 22 | 151 | 3.2 | 4.8 | 0.00 | 0.00 | 0.00 | 96 | 1007.3 |
| 20260506101432 | 22 | 168 | 3.2 | 3.2 | 0.00 | 0.00 | 0.00 | 96 | 1007.3 |
| 20260506100929 | 22 | 151 | 1.6 | 1.6 | 0.00 | 0.00 | 0.00 | 96 | 1007.1 |
| 20260506100427 | 22 | 152 | 1.6 | 3.2 | 0.00 | 0.00 | 0.00 | 96 | 1007.2 |
| 20260506095925 | 22 | 157 | 3.2 | 3.2 | 0.00 | 0.00 | 0.00 | 96 | 1007.2 |
| 20260506095424 | 22 | 156 | 3.2 | 3.2 | 0.00 | 0.00 | 0.00 | 96 | 1007.2 |
| 20260506094919 | 22 | 152 | 3.2 | 3.2 | 0.00 | 0.00 | 0.00 | 96 | 1007.2 |
| 20260506094418 | 22 | 156 | 1.6 | 1.6 | 0.00 | 0.00 | 0.00 | 96 | 1007.2 |
| 20260506093915 | 22 | 191 | 3.2 | 3.2 | 0.00 | 0.00 | 0.00 | 96 | 1006.9 |
| 20260506093413 | 22 | 153 | 3.2 | 3.2 | 0.00 | 0.00 | 0.00 | 96 | 1007.2 |
| 20260506092911 | 22 | 155 | 3.2 | 3.2 | 0.00 | 0.00 | 0.00 | 96 | 1006.9 |
| 20260506092409 | 22 | 152 | 1.6 | 1.6 | 0.00 | 0.00 | 0.00 | 96 | 1007.1 |
| 20260506091905 | 22 | 151 | 3.2 | 4.8 | 0.00 | 0.00 | 0.00 | 96 | 1006.8 |
| 20260506091403 | 22 | 195 | 4.8 | 4.8 | 0.00 | 0.00 | 0.00 | 96 | 1006.4 |
| 20260506090900 | 22 | 153 | 4.8 | 8.0 | 0.00 | 0.00 | 0.00 | 96 | 1006.8 |
| 20260506090357 | 22 | 155 | 4.8 | 4.8 | 0.00 | 0.00 | 0.00 | 96 | 1006.7 |
| 20260506085854 | 22 | 151 | 4.8 | 4.8 | 0.00 | 0.00 | 0.00 | 96 | 1006.9 |
| 20260506085350 | 22 | 160 | 3.2 | 4.8 | 0.00 | 0.00 | 0.00 | 96 | 1006.6 |
| 20260506084847 | 22 | 149 | 6.4 | 8.0 | 0.00 | 0.00 | 0.00 | 96 | 1006.7 |
| 20260506084344 | 22 | 160 | 3.2 | 4.8 | 0.00 | 0.00 | 0.00 | 96 | 1006.7 |
| 20260506083840 | 22 | 160 | 4.8 | 4.8 | 0.00 | 0.00 | 0.00 | 96 | 1006.7 |
| 20260506083338 | 22 | 146 | 4.8 | 4.8 | 0.00 | 0.00 | 0.00 | 96 | 1006.6 |
| 20260506082835 | 22 | 153 | 6.4 | 8.0 | 0.00 | 0.00 | 0.00 | 96 | 1006.7 |
| 20260506082331 | 22 | 151 | 3.2 | 3.2 | 0.00 | 0.00 | 0.00 | 96 | 1006.9 |
| 20260506081828 | 22 | 166 | 3.2 | 3.2 | 0.00 | 0.00 | 0.00 | 96 | 1006.9 |
| 20260506081326 | 22 | 150 | 4.8 | 8.0 | 0.00 | 0.00 | 0.00 | 96 | 1007.1 |
| 20260506080823 | 22 | 153 | 4.8 | 4.8 | 0.00 | 0.00 | 0.00 | 96 | 1007.3 |
| 20260506080319 | 22 | 168 | 4.8 | 4.8 | 0.00 | 0.00 | 0.00 | 96 | 1006.8 |
| 20260506073304 | 23 | 144 | 6.4 | 8.0 | 0.00 | 0.00 | 0.00 | 95 | 1007.1 |
| 20260506072800 | 23 | 154 | 4.8 | 4.8 | 0.00 | 0.00 | 0.00 | 95 | 1007.3 |
| 20260506072258 | 23 | 151 | 3.2 | 4.8 | 0.00 | 0.00 | 0.00 | 95 | 1007.2 |
| 20260506071755 | 23 | 157 | 4.8 | 4.8 | 0.00 | 0.00 | 0.00 | 95 | 1007.3 |
| 20260506071254 | 23 | 156 | 4.8 | 8.0 | 0.00 | 0.00 | 0.00 | 95 | 1007.3 |
| 20260506070750 | 23 | 156 | 6.4 | 9.7 | 0.00 | 0.00 | 0.00 | 95 | 1007.5 |
| 20260506070247 | 23 | 145 | 9.7 | 11.3 | 0.00 | 0.00 | 0.00 | 95 | 1007.5 |
| 20260506062224 | 23 | 200 | 4.8 | 4.8 | 0.00 | 0.00 | 0.00 | 96 | 1007.6 |
| 20260506061720 | 23 | 157 | 3.2 | 3.2 | 0.00 | 0.00 | 0.00 | 96 | 1007.8 |
| 20260506061218 | 23 | 168 | 6.4 | 9.7 | 0.00 | 0.00 | 0.00 | 96 | 1007.8 |
| 20260506060716 | 23 | 163 | 3.2 | 3.2 | 0.00 | 0.00 | 0.00 | 96 | 1007.8 |
| 20260506060213 | 23 | 163 | 3.2 | 4.8 | 0.00 | 0.00 | 0.00 | 96 | 1007.8 |
| 20260506051145 | 23 | 173 | 4.8 | 4.8 | 0.00 | 0.00 | 0.00 | 95 | 1007.4 |
| 20260506050643 | 23 | 179 | 4.8 | 4.8 | 0.00 | 0.00 | 0.00 | 95 | 1007.6 |
| 20260506050140 | 23 | 144 | 4.8 | 4.8 | 0.00 | 0.00 | 0.00 | 95 | 1007.5 |
| 20260506045133 | 23 | 158 | 4.8 | 4.8 | 0.00 | 0.00 | 0.00 | 95 | 1007.6 |
| 20260506044631 | 23 | 165 | 8.0 | 11.3 | 0.00 | 0.00 | 0.00 | 95 | 1007.4 |
| 20260506044128 | 23 | 165 | 3.2 | 3.2 | 0.00 | 0.00 | 0.00 | 95 | 1007.5 |
| 20260506043625 | 23 | 170 | 8.0 | 11.3 | 0.00 | 0.00 | 0.00 | 95 | 1007.3 |
| 20260506043123 | 23 | 149 | 4.8 | 8.0 | 0.00 | 0.00 | 0.00 | 94 | 1007.4 |
| 20260506042622 | 23 | 151 | 4.8 | 4.8 | 0.00 | 0.00 | 0.00 | 94 | 1007.6 |
| 20260506042119 | 23 | 152 | 4.8 | 4.8 | 0.00 | 0.00 | 0.00 | 94 | 1007.5 |
| 20260506041618 | 23 | 166 | 4.8 | 4.8 | 0.00 | 0.00 | 0.00 | 94 | 1007.4 |
| 20260506041114 | 23 | 156 | 3.2 | 4.8 | 0.00 | 0.00 | 0.00 | 94 | 1007.5 |
| 20260506040612 | 23 | 153 | 8.0 | 11.3 | 0.00 | 0.00 | 0.00 | 94 | 1007.5 |
| 20260506040108 | 23 | 207 | 8.0 | 11.3 | 0.00 | 0.00 | 0.00 | 94 | 1007.3 |
| 20260506035605 | 23 | 165 | 4.8 | 4.8 | 0.00 | 0.00 | 0.00 | 94 | 1007.3 |
| 20260506035102 | 24 | 152 | 4.8 | 8.0 | 0.00 | 0.00 | 0.00 | 94 | 1007.4 |
| 20260506034559 | 24 | 151 | 4.8 | 4.8 | 0.00 | 0.00 | 0.00 | 94 | 1007.1 |
| 20260506034056 | 24 | 156 | 3.2 | 3.2 | 0.00 | 0.00 | 0.00 | 94 | 1007.2 |
| 20260506033553 | 24 | 152 | 6.4 | 8.0 | 0.00 | 0.00 | 0.00 | 93 | 1006.8 |
| 20260506033050 | 24 | 153 | 4.8 | 9.7 | 0.00 | 0.00 | 0.00 | 93 | 1006.7 |
| 20260506032548 | 24 | 169 | 4.8 | 8.0 | 0.00 | 0.00 | 0.00 | 93 | 1006.5 |
| 20260506032044 | 24 | 157 | 3.2 | 3.2 | 0.00 | 0.00 | 0.00 | 93 | 1006.5 |
| 20260506031542 | 24 | 195 | 4.8 | 8.0 | 0.00 | 0.00 | 0.00 | 93 | 1006.6 |
| 20260506031038 | 24 | 156 | 3.2 | 3.2 | 0.00 | 0.00 | 0.00 | 93 | 1006.5 |
| 20260506030537 | 24 | 160 | 4.8 | 9.7 | 0.00 | 0.00 | 0.00 | 93 | 1006.5 |
| 20260506030034 | 24 | 167 | 6.4 | 9.7 | 0.00 | 0.00 | 0.00 | 92 | 1006.5 |
| 20260506025531 | 24 | 156 | 1.6 | 3.2 | 0.00 | 0.00 | 0.00 | 92 | 1006.4 |
| 20260506025026 | 24 | 152 | 4.8 | 8.0 | 0.00 | 0.00 | 0.00 | 92 | 1006.2 |
| 20260506024524 | 25 | 155 | 1.6 | 3.2 | 0.00 | 0.00 | 0.00 | 91 | 1006.2 |
| 20260506024020 | 25 | 156 | 1.6 | 3.2 | 0.00 | 0.00 | 0.00 | 91 | 1006.1 |
| 20260506023516 | 25 | 155 | 3.2 | 3.2 | 0.00 | 0.00 | 0.00 | 90 | 1005.9 |
| 20260506023014 | 25 | 155 | 3.2 | 3.2 | 0.00 | 0.00 | 0.00 | 89 | 1006.0 |
| 20260506022511 | 25 | 155 | 1.6 | 3.2 | 0.00 | 0.00 | 0.00 | 89 | 1006.0 |
| 20260506022009 | 25 | 167 | 4.8 | 4.8 | 0.00 | 0.00 | 0.00 | 88 | 1006.0 |
| 20260506021506 | 25 | 153 | 3.2 | 4.8 | 0.00 | 0.00 | 0.00 | 88 | 1005.7 |
| 20260506021003 | 25 | 154 | 4.8 | 4.8 | 0.00 | 0.00 | 0.00 | 87 | 1005.8 |
| 20260506020501 | 25 | 157 | 3.2 | 3.2 | 0.00 | 0.00 | 0.00 | 87 | 1005.8 |
| 20260506015957 | 25 | 155 | 1.6 | 1.6 | 0.00 | 0.00 | 0.00 | 86 | 1005.7 |
| 20260506015455 | 25 | 155 | 1.6 | 3.2 | 0.00 | 0.00 | 0.00 | 86 | 1005.6 |
| 20260506014952 | 25 | 154 | 1.6 | 1.6 | 0.00 | 0.00 | 0.00 | 86 | 1005.4 |
| 20260506014449 | 25 | 154 | 1.6 | 1.6 | 0.00 | 0.00 | 0.00 | 86 | 1005.6 |
| 20260506013945 | 26 | 154 | 1.6 | 1.6 | 0.00 | 0.00 | 0.00 | 86 | 1005.3 |
| 20260506013443 | 26 | 154 | 0.0 | 0.0 | 0.00 | 0.00 | 0.00 | 85 | 1005.3 |
| 20260506012939 | 26 | 154 | 1.6 | 1.6 | 0.00 | 0.00 | 0.00 | 85 | 1005.1 |
| 20260506012436 | 26 | 153 | 0.0 | 1.6 | 0.00 | 0.00 | 0.00 | 85 | 1005.2 |
| 20260506011933 | 26 | 153 | 1.6 | 1.6 | 0.00 | 0.00 | 0.00 | 84 | 1005.2 |
| 20260506011430 | 26 | 153 | 1.6 | 1.6 | 0.00 | 0.00 | 0.00 | 83 | 1005.3 |
| 20260506010927 | 26 | 151 | 3.2 | 3.2 | 0.00 | 0.00 | 0.00 | 83 | 1005.2 |
| 20260506010426 | 26 | 153 | 1.6 | 3.2 | 0.00 | 0.00 | 0.00 | 82 | 1005.2 |
| 20260506005921 | 27 | 152 | 1.6 | 1.6 | 0.00 | 0.00 | 0.00 | 82 | 1005.2 |
| 20260506005420 | 27 | 152 | 3.2 | 3.2 | 0.00 | 0.00 | 0.00 | 81 | 1005.2 |
| 20260506004914 | 27 | 151 | 1.6 | 3.2 | 0.00 | 0.00 | 0.00 | 80 | 1005.2 |
| 20260506004413 | 27 | 152 | 0.0 | 0.0 | 0.00 | 0.00 | 0.00 | 81 | 1005.3 |
| 20260506003908 | 27 | 152 | 1.6 | 1.6 | 0.00 | 0.00 | 0.00 | 80 | 1005.1 |
| 20260506003405 | 27 | 152 | 1.6 | 1.6 | 0.00 | 0.00 | 0.00 | 80 | 1005.0 |
| 20260506002902 | 27 | 152 | 0.0 | 0.0 | 0.00 | 0.00 | 0.00 | 79 | 1005.2 |
| 20260506002358 | 27 | 152 | 0.0 | 1.6 | 0.00 | 0.00 | 0.00 | 79 | 1005.5 |
| 20260506001853 | 27 | 151 | 1.6 | 1.6 | 0.00 | 0.00 | 0.00 | 78 | 1005.0 |
| 20260506001350 | 27 | 151 | 3.2 | 3.2 | 0.00 | 0.00 | 0.00 | 79 | 1004.9 |
| 20260506000847 | 27 | 152 | 1.6 | 3.2 | 0.00 | 0.00 | 0.00 | 78 | 1004.9 |
| 20260506000346 | 28 | 152 | 0.0 | 1.6 | 0.00 | 0.00 | 0.00 | 78 | 1005.0 |
| 20260505235842 | 28 | 152 | 1.6 | 1.6 | 0.00 | 0.00 | 0.00 | 77 | 1004.9 |
| 20260505235339 | 28 | 152 | 1.6 | 3.2 | 0.00 | 0.00 | 0.00 | 77 | 1004.9 |
| 20260505234836 | 28 | 152 | 1.6 | 3.2 | 0.00 | 0.00 | 0.00 | 76 | 1004.8 |
| 20260505234334 | 28 | 151 | 1.6 | 3.2 | 0.00 | 0.00 | 0.00 | 76 | 1004.8 |
| 20260505233831 | 28 | 152 | 4.8 | 9.7 | 0.00 | 0.00 | 0.00 | 75 | 1004.8 |
| 20260505233329 | 28 | 153 | 4.8 | 4.8 | 0.00 | 0.00 | 0.00 | 75 | 1004.7 |
| 20260505232826 | 28 | 152 | 4.8 | 4.8 | 0.00 | 0.00 | 0.00 | 76 | 1004.7 |
| 20260505232323 | 28 | 153 | 1.6 | 3.2 | 0.00 | 0.00 | 0.00 | 75 | 1004.7 |
| 20260505231820 | 28 | 154 | 4.8 | 8.0 | 0.00 | 0.00 | 0.00 | 74 | 1004.8 |
| 20260505231318 | 28 | 171 | 3.2 | 4.8 | 0.00 | 0.00 | 0.00 | 74 | 1004.9 |
| 20260505230816 | 28 | 150 | 6.4 | 9.7 | 0.00 | 0.00 | 0.00 | 73 | 1004.7 |
| 20260505230313 | 28 | 152 | 3.2 | 4.8 | 0.00 | 0.00 | 0.00 | 75 | 1004.6 |
| 20260505225809 | 28 | 152 | 4.8 | 4.8 | 0.00 | 0.00 | 0.00 | 74 | 1004.4 |
| 20260505225306 | 28 | 150 | 6.4 | 8.0 | 0.00 | 0.00 | 0.00 | 73 | 1004.4 |
| 20260505224801 | 28 | 150 | 6.4 | 9.7 | 0.00 | 0.00 | 0.00 | 72 | 1004.6 |
| 20260505224259 | 28 | 153 | 4.8 | 8.0 | 0.00 | 0.00 | 0.00 | 73 | 1004.5 |
| 20260505223756 | 28 | 184 | 4.8 | 8.0 | 0.00 | 0.00 | 0.00 | 72 | 1004.7 |
| 20260505223253 | 28 | 151 | 6.4 | 9.7 | 0.00 | 0.00 | 0.00 | 72 | 1004.6 |
| 20260505222749 | 29 | 209 | 6.4 | 8.0 | 0.00 | 0.00 | 0.00 | 71 | 1005.0 |
| 20260505222245 | 28 | 153 | 1.6 | 3.2 | 0.00 | 0.00 | 0.00 | 73 | 1004.7 |
| 20260505221743 | 28 | 155 | 4.8 | 8.0 | 0.00 | 0.00 | 0.00 | 72 | 1004.7 |
| 20260505221239 | 28 | 166 | 4.8 | 8.0 | 0.00 | 0.00 | 0.00 | 71 | 1004.8 |
| 20260505220736 | 28 | 209 | 4.8 | 8.0 | 0.00 | 0.00 | 0.00 | 72 | 1004.8 |
| 20260505220233 | 28 | 182 | 3.2 | 4.8 | 0.00 | 0.00 | 0.00 | 72 | 1005.0 |
| 20260505215731 | 28 | 211 | 4.8 | 4.8 | 0.00 | 0.00 | 0.00 | 73 | 1004.9 |
| 20260505215229 | 28 | 151 | 4.8 | 8.0 | 0.00 | 0.00 | 0.00 | 73 | 1004.7 |
| 20260505214727 | 28 | 186 | 6.4 | 8.0 | 0.00 | 0.00 | 0.00 | 73 | 1004.8 |
| 20260505214224 | 28 | 156 | 3.2 | 4.8 | 0.00 | 0.00 | 0.00 | 73 | 1004.8 |
| 20260505213721 | 29 | 157 | 4.8 | 4.8 | 0.00 | 0.00 | 0.00 | 71 | 1005.3 |
| 20260505213218 | 29 | 152 | 4.8 | 9.7 | 0.00 | 0.00 | 0.00 | 71 | 1005.0 |
| 20260505212714 | 30 | 171 | 4.8 | 8.0 | 0.00 | 0.00 | 0.00 | 71 | 1005.1 |
| 20260505212212 | 28 | 154 | 9.7 | 12.9 | 0.00 | 0.00 | 0.00 | 73 | 1005.6 |
| 20260505211708 | 28 | 153 | 6.4 | 8.0 | 0.00 | 0.00 | 0.00 | 73 | 1005.4 |
| 20260505211206 | 28 | 156 | 6.4 | 9.7 | 0.00 | 0.00 | 0.00 | 73 | 1005.5 |
| 20260505210702 | 28 | 153 | 8.0 | 11.3 | 0.00 | 0.00 | 0.00 | 73 | 1005.7 |
| 20260505210159 | 28 | 154 | 1.6 | 3.2 | 0.00 | 0.00 | 0.00 | 72 | 1005.6 |
| 20260505205656 | 28 | 153 | 6.4 | 8.0 | 0.00 | 0.00 | 0.00 | 72 | 1005.8 |
| 20260505205154 | 28 | 152 | 4.8 | 4.8 | 0.00 | 0.00 | 0.00 | 72 | 1005.7 |
| 20260505204651 | 28 | 155 | 3.2 | 3.2 | 0.00 | 0.00 | 0.00 | 72 | 1005.7 |
| 20260505204149 | 28 | 155 | 3.2 | 8.0 | 0.00 | 0.00 | 0.00 | 73 | 1005.8 |
| 20260505203646 | 28 | 155 | 3.2 | 3.2 | 0.00 | 0.00 | 0.00 | 74 | 1005.9 |
| 20260505203142 | 27 | 182 | 4.8 | 4.8 | 0.00 | 0.00 | 0.00 | 75 | 1006.0 |
| 20260505202638 | 28 | 155 | 0.0 | 1.6 | 0.00 | 0.00 | 0.00 | 75 | 1006.1 |
| 20260505202134 | 28 | 152 | 4.8 | 8.0 | 0.00 | 0.00 | 0.00 | 74 | 1006.1 |
| 20260505201631 | 27 | 155 | 3.2 | 3.2 | 0.00 | 0.00 | 0.00 | 75 | 1006.1 |
| 20260505201129 | 27 | 156 | 6.4 | 9.7 | 0.00 | 0.00 | 0.00 | 76 | 1006.2 |
| 20260505200627 | 28 | 187 | 4.8 | 4.8 | 0.00 | 0.00 | 0.00 | 74 | 1006.3 |
| 20260505200124 | 29 | 190 | 3.2 | 4.8 | 0.00 | 0.00 | 0.00 | 73 | 1006.4 |
| 20260505195620 | 28 | 208 | 4.8 | 8.0 | 0.00 | 0.00 | 0.00 | 74 | 1006.3 |
| 20260505195117 | 27 | 215 | 11.3 | 12.9 | 0.00 | 0.00 | 0.00 | 75 | 1006.5 |
| 20260505194614 | 27 | 156 | 4.8 | 4.8 | 0.00 | 0.00 | 0.00 | 76 | 1006.6 |
| 20260505194109 | 27 | 176 | 8.0 | 9.7 | 0.00 | 0.00 | 0.00 | 76 | 1006.6 |
| 20260505193601 | 27 | 158 | 3.2 | 3.2 | 0.00 | 0.00 | 0.00 | 76 | 1006.6 |
| 20260505193058 | 27 | 213 | 3.2 | 3.2 | 0.00 | 0.00 | 0.00 | 76 | 1006.9 |
| 20260505192557 | 27 | 211 | 9.7 | 12.9 | 0.00 | 0.00 | 0.00 | 75 | 1006.7 |
| 20260505192054 | 27 | 206 | 6.4 | 8.0 | 0.00 | 0.00 | 0.00 | 77 | 1006.8 |
| 20260505191552 | 27 | 161 | 1.6 | 1.6 | 0.00 | 0.00 | 0.00 | 77 | 1006.7 |
| 20260505191049 | 27 | 160 | 3.2 | 4.8 | 0.00 | 0.00 | 0.00 | 77 | 1006.6 |
| 20260505190544 | 27 | 203 | 8.0 | 11.3 | 0.00 | 0.00 | 0.00 | 77 | 1006.8 |
| 20260505190040 | 27 | 162 | 6.4 | 8.0 | 0.00 | 0.00 | 0.00 | 78 | 1007.1 |
| 20260505185537 | 26 | 162 | 3.2 | 4.8 | 0.00 | 0.00 | 0.00 | 80 | 1007.1 |
| 20260505185033 | 26 | 210 | 6.4 | 9.7 | 0.00 | 0.00 | 0.00 | 80 | 1007.4 |
| 20260505184530 | 26 | 161 | 1.6 | 1.6 | 0.00 | 0.00 | 0.00 | 81 | 1007.4 |
| 20260505184027 | 26 | 161 | 3.2 | 3.2 | 0.00 | 0.00 | 0.00 | 81 | 1007.4 |
| 20260505183524 | 26 | 207 | 8.0 | 11.3 | 0.00 | 0.00 | 0.00 | 80 | 1007.4 |
| 20260505183021 | 26 | 209 | 6.4 | 11.3 | 0.00 | 0.00 | 0.00 | 80 | 1007.5 |
| 20260505182518 | 26 | 161 | 1.6 | 1.6 | 0.00 | 0.00 | 0.00 | 79 | 1007.5 |
| 20260505182015 | 26 | 161 | 6.4 | 8.0 | 0.00 | 0.00 | 0.00 | 80 | 1007.3 |
| 20260505181511 | 26 | 161 | 4.8 | 4.8 | 0.00 | 0.00 | 0.00 | 80 | 1007.5 |
| 20260505181009 | 25 | 162 | 4.8 | 8.0 | 0.00 | 0.00 | 0.00 | 83 | 1007.5 |
| 20260505180504 | 25 | 170 | 3.2 | 4.8 | 0.00 | 0.00 | 0.00 | 84 | 1007.9 |
| 20260505180002 | 25 | 190 | 3.2 | 4.8 | 0.00 | 0.00 | 0.00 | 84 | 1007.7 |
| 20260505175457 | 25 | 193 | 4.8 | 4.8 | 0.00 | 0.00 | 0.00 | 84 | 1007.7 |
| 20260505174954 | 25 | 209 | 4.8 | 8.0 | 0.00 | 0.00 | 0.00 | 84 | 1007.9 |
| 20260505174451 | 25 | 162 | 3.2 | 3.2 | 0.00 | 0.00 | 0.00 | 85 | 1007.8 |
| 20260505173947 | 25 | 160 | 6.4 | 8.0 | 0.00 | 0.00 | 0.00 | 84 | 1007.8 |
| 20260505173444 | 25 | 161 | 4.8 | 4.8 | 0.00 | 0.00 | 0.00 | 84 | 1008.0 |
| 20260505172941 | 25 | 161 | 4.8 | 4.8 | 0.00 | 0.00 | 0.00 | 84 | 1007.7 |
| 20260505172439 | 25 | 162 | 4.8 | 4.8 | 0.00 | 0.00 | 0.00 | 84 | 1007.9 |
| 20260505171938 | 25 | 176 | 4.8 | 4.8 | 0.00 | 0.00 | 0.00 | 85 | 1007.8 |
| 20260505171436 | 24 | 161 | 4.8 | 9.7 | 0.00 | 0.00 | 0.00 | 86 | 1007.9 |
| 20260505170932 | 24 | 162 | 1.6 | 1.6 | 0.00 | 0.00 | 0.00 | 87 | 1007.8 |
| 20260505170429 | 23 | 164 | 3.2 | 3.2 | 0.00 | 0.00 | 0.00 | 89 | 1008.0 |
| 20260505165924 | 23 | 205 | 4.8 | 4.8 | 0.00 | 0.00 | 0.00 | 89 | 1008.2 |
| 20260505165420 | 23 | 163 | 1.6 | 3.2 | 0.00 | 0.00 | 0.00 | 89 | 1007.9 |
| 20260505164916 | 23 | 163 | 1.6 | 3.2 | 0.00 | 0.00 | 0.00 | 91 | 1007.8 |
| 20260505164413 | 22 | 205 | 4.8 | 4.8 | 0.00 | 0.00 | 0.00 | 92 | 1007.7 |
| 20260505163911 | 22 | 205 | 9.7 | 11.3 | 0.00 | 0.00 | 0.00 | 92 | 1007.7 |
| 20260505163410 | 22 | 163 | 4.8 | 4.8 | 0.00 | 0.00 | 0.00 | 93 | 1007.9 |
| 20260505162908 | 22 | 185 | 8.0 | 11.3 | 0.00 | 0.00 | 0.00 | 93 | 1007.9 |
| 20260505162403 | 22 | 201 | 1.6 | 3.2 | 0.00 | 0.00 | 0.00 | 94 | 1008.0 |
| 20260505161900 | 22 | 200 | 6.4 | 9.7 | 0.00 | 0.00 | 0.00 | 95 | 1008.0 |
| 20260505161357 | 22 | 187 | 3.2 | 4.8 | 0.00 | 0.00 | 0.00 | 95 | 1007.7 |
| 20260505160854 | 21 | 207 | 4.8 | 4.8 | 0.00 | 0.00 | 0.00 | 95 | 1007.7 |
| 20260505160353 | 21 | 163 | 4.8 | 9.7 | 0.00 | 0.00 | 0.00 | 95 | 1007.9 |
| 20260505153331 | 21 | 169 | 1.6 | 1.6 | 0.00 | 0.00 | 0.00 | 96 | 1008.1 |
| 20260505152828 | 21 | 210 | 6.4 | 9.7 | 0.00 | 0.00 | 0.00 | 97 | 1007.8 |
| 20260505152325 | 21 | 204 | 6.4 | 9.7 | 0.00 | 0.00 | 0.00 | 97 | 1007.8 |
| 20260505151820 | 21 | 176 | 4.8 | 9.7 | 0.00 | 0.00 | 0.00 | 97 | 1007.9 |
| 20260505151317 | 21 | 204 | 8.0 | 11.3 | 0.00 | 0.00 | 0.00 | 97 | 1007.8 |
| 20260505150814 | 21 | 199 | 1.6 | 3.2 | 0.00 | 0.00 | 0.00 | 97 | 1007.8 |
| 20260505150311 | 20 | 171 | 1.6 | 3.2 | 0.00 | 0.00 | 0.00 | 97 | 1007.8 |